Weather reports worldwide

Advertisment
Nancy/Essey, France (7180): temperature & dewpoint: 19.09.2018 23:00:00 - 25.09.2018 23:00:00 (CEST)Nancy/Essey, France (7180): temperature 5cm: 19.09.2018 23:00:00 - 25.09.2018 23:00:00 (CEST)Nancy/Essey, France (7180): temperature -20cm & temperature -100cm: 19.09.2018 23:00:00 - 25.09.2018 23:00:00 (CEST)Nancy/Essey, France (7180): wind speed & gusts: 19.09.2018 23:00:00 - 25.09.2018 23:00:00 (CEST)Nancy/Essey, France (7180): wind direction: 19.09.2018 23:00:00 - 25.09.2018 23:00:00 (CEST)Nancy/Essey, France (7180): reduced air pressure: 19.09.2018 23:00:00 - 25.09.2018 23:00:00 (CEST)Nancy/Essey, France (7180): visibility: 19.09.2018 23:00:00 - 25.09.2018 23:00:00 (CEST)Nancy/Essey, France (7180): sunshine duration: 19.09.2018 23:00:00 - 25.09.2018 23:00:00 (CEST)Nancy/Essey, France (7180): precipitation: 19.09.2018 23:00:00 - 25.09.2018 23:00:00 (CEST)
Date & Time tt [°C] td [°C] tt 5cm [°C] tt -20cm [°C] tt -100cm [°C] ff [km/h] ff [kn] fx [km/h] fx [kn] dd ppp [hPa] vv [km] sd [min] rr [mm]
25.09.2018 23:00:00 8,6 2,2 4,8 15,8 17,9 16 9 24 13 NNE 1036,6 60 0 0,0
25.09.2018 22:00:00 8,3 2,3 5,4 15,8 17,9 17 9 20 11 NE 1036,5 60 0 0,0
25.09.2018 21:00:00 8,8 1,9 5,6 15,9 17,9 13 7 23 12 NE 1036,3 60 0 0,0
25.09.2018 20:00:00 11,1 1,6 9,1 15,9 17,9 16 9 29 16 ENE 1035,7 60 0 0,0
25.09.2018 19:00:00 13,7 1,0 12,6 15,8 17,9 22 12 38 20 ENE 1035,3 60 58 0,0
25.09.2018 18:00:00 15,4 1,5 17,0 15,7 17,9 24 13 44 24 ENE 1035,2 60 60 0,0
25.09.2018 17:00:00 15,9 1,2 18,0 15,6 17,9 29 16 46 25 ENE 1035,6 57 60 0,0
25.09.2018 16:00:00 16,3 1,9 18,7 15,5 17,9 27 15 41 22 ENE 1036,2 53 60 0,0
25.09.2018 15:00:00 16,1 2,1 18,5 15,4 17,9 27 15 43 23 ENE 1036,6 20 60 0,0
25.09.2018 14:00:00 15,4 3,2 17,7 15,3 17,9 29 16 47 25 ENE 1037,1 53 60 0,0
25.09.2018 13:00:00 14,5 4,5 17,1 15,3 18,0 29 15 43 23 ENE 1037,6 55 60 0,0
25.09.2018 12:00:00 13,3 5,7 15,6 15,4 18,0 23 13 37 20 ENE 1037,9 20 60 0,0
25.09.2018 11:00:00 11,6 5,9 13,2 15,4 17,9 20 11 33 18 NE 1037,9 20 60 0,0
25.09.2018 10:00:00 9,7 5,7 10,6 15,6 18,0 19 11 27 15 NE 1038,0 39 60 0,0
25.09.2018 09:00:00 7,7 5,2 4,5 15,7 18,0 19 10 28 15 NE 1037,7 37 60 0,0
25.09.2018 08:00:00 6,1 3,8 2,8 15,9 18,0 11 6 21 12 NE 1037,5 40 12 0,0
25.09.2018 07:00:00 4,6 3,1 0,8 16,0 18,0 15 8 18 10 NE 1037,5 27 0 0,0
25.09.2018 06:00:00 5,1 3,4 0,8 16,1 18,0 3 2 7 4 ESE 1037,3 51 0 0,0
25.09.2018 05:00:00 5,7 3,9 1,6 16,3 18,0 4 2 14 8 NNE 1037,7 60 0 0,0
25.09.2018 04:00:00 5,7 3,7 2,5 16,4 18,0 15 8 17 9 NE 1037,6 60 0 0,0
25.09.2018 03:00:00 6,5 3,8 2,4 16,5 18,0 9 5 13 7 ENE 1037,4 60 0 0,0
25.09.2018 02:00:00 6,8 4,1 2,3 16,6 18,0 9 5 16 9 NE 1037,4 60 0 0,0
25.09.2018 01:00:00 8,6 4,8 5,9 16,8 18,0 12 6 20 11 NNE 1037,1 60 0 0,0
25.09.2018 00:00:00 8,1 4,7 4,2 16,9 18,0 11 6 18 10 NE 1037,0 60 0 0,0
24.09.2018 23:00:00 8,3 3,9 4,9 16,9 18,0 7 4 14 8 NE 1036,8 60 0 0,0
24.09.2018 22:00:00 8,5 4,9 5,6 17,0 18,0 11 6 19 11 ENE 1036,5 60 0 0,0
24.09.2018 21:00:00 11,6 4,6 9,1 17,0 18,0 12 6 21 11 N 1035,8 60 0 0,0
24.09.2018 20:00:00 13,0 4,4 11,6 17,0 18,0 16 8 24 13 N 1035,1 60 0 0,0
24.09.2018 19:00:00 13,9 3,6 12,7 17,0 18,0 10 5 21 12 N 1034,5 60 31 0,0
24.09.2018 18:00:00 14,4 3,8 13,5 16,9 18,0 13 7 23 13 NNE 1034,2 60 12 0,0
24.09.2018 17:00:00 14,1 3,2 13,7 16,8 18,0 17 9 34 18 NNE 1034,3 60 28 0,0
24.09.2018 16:00:00 15,4 2,9 14,5 16,7 18,1 15 8 33 18 N 1034,2 60 41 0,0
24.09.2018 15:00:00 14,6 4,6 14,7 16,6 18,1 17 9 30 16 N 1034,5 60 39 0,0
24.09.2018 14:00:00 14,0 3,4 14,2 16,6 18,1 19 10 34 18 N 1034,7 20 38 0,0
24.09.2018 13:00:00 14,1 4,1 18,8 16,5 18,1 16 9 32 17 N 1035,1 47 60 0,0
24.09.2018 12:00:00 13,4 5,0 17,2 16,6 18,0 19 11 32 17 NNE 1035,3 42 60 0,0
24.09.2018 11:00:00 12,5 7,4 16,9 16,6 18,1 13 7 23 12 NE 1035,1 44 60 0,0
24.09.2018 10:00:00 11,2 6,7 13,1 16,8 18,1 14 8 22 12 NE 1034,8 43 60 0,0
24.09.2018 09:00:00 9,1 6,9 7,0 16,9 18,1 4 2 12 7 W 1034,0 25 60 0,0
24.09.2018 08:00:00 7,6 6,4 6,0 17,0 18,1 10 6 16 8 WNW 1033,3 18 13 0,0
24.09.2018 07:00:00 7,5 6,0 4,8 17,1 18,1 10 6 15 8 NNW 1032,4 38 0 0,0
24.09.2018 06:00:00 7,6 6,1 6,1 17,2 18,1 8 5 19 10 NW 1031,6 58 0 0,0
24.09.2018 05:00:00 8,5 6,5 8,1 17,4 18,1 8 4 17 9 NW 1030,7 60 0 0,0
24.09.2018 04:00:00 8,5 6,1 7,2 17,5 18,1 10 5 16 9 NW 1029,5 60 0 0,0
24.09.2018 03:00:00 8,6 6,2 6,6 17,6 18,1 6 4 22 12 WNW 1029,0 60 0 0,0
24.09.2018 02:00:00 9,5 6,6 8,6 17,7 18,1 13 7 26 14 NW 1027,8 60 0 0,0
24.09.2018 01:00:00 10,5 6,6 9,8 17,7 18,1 18 10 38 20 NNW 1026,6 60 0 0,0
24.09.2018 00:00:00 11,3 8,2 10,9 17,8 18,1 16 9 27 15 NW 1025,0 60 0 0,0
23.09.2018 23:00:00 11,4 8,4 10,6 17,9 18,1 13 7 26 14 NW 1023,6 60 0 0,0
23.09.2018 22:00:00 11,8 8,8 11,1 17,9 18,1 15 8 38 20 NW 1021,8 60 0 0,0
23.09.2018 21:00:00 12,5 9,5 11,9 17,9 18,1 20 11 39 21 NW 1019,6 60 0 0,0
23.09.2018 20:00:00 13,0 10,4 11,8 17,9 18,1 24 13 66 36 NW 1016,9 60 0 0,3
23.09.2018 19:00:00 15,1 13,1 14,0 17,9 18,1 27 15 65 35 WNW 1013,0 18 0 1,4
23.09.2018 18:00:00 16,4 14,2 15,3 17,8 18,1 35 19 72 39 WNW 1011,1 2,3 0 12,3
23.09.2018 17:00:00 22,1 17,0 20,7 17,8 18,1 36 20 85 46 SW 1008,4 47 2 0,0
23.09.2018 16:00:00 21,2 17,4 18,9 17,7 18,2 35 19 66 36 SW 1009,5 44 0 0,2
23.09.2018 15:00:00 20,0 17,8 18,9 17,6 18,1 31 17 56 31 SSW 1010,8 7 0 0,2
23.09.2018 14:00:00 19,9 18,0 19,0 17,6 18,2 26 14 49 27 SSW 1012,3 7 0 0,0
23.09.2018 13:00:00 20,1 17,7 19,4 17,5 18,2 23 12 54 29 SSW 1013,2 12 0 0,0
23.09.2018 12:00:00 20,3 17,3 17,4 17,5 18,2 22 12 42 23 SSW 1013,4 20 0 0,0
23.09.2018 11:00:00 17,8 16,3 17,1 17,5 18,2 21 11 39 21 S 1014,5 5 0 0,0
23.09.2018 10:00:00 17,8 15,8 16,9 17,5 18,2 21 11 39 21 SSW 1014,6 14 0 0,0
23.09.2018 09:00:00 17,6 15,8 16,4 17,5 18,2 15 8 35 19 SSW 1014,6 18 0 0,2
23.09.2018 08:00:00 18,3 15,2 16,7 17,5 18,2 18 10 52 28 SSW 1014,6 60 0 0,0
23.09.2018 07:00:00 19,3 14,1 18,7 17,6 18,2 29 16 53 29 SW 1014,6 58 0 0,0
23.09.2018 06:00:00 19,5 13,4 17,8 17,6 18,2 25 13 49 26 SW 1014,7 60 0 0,0
23.09.2018 05:00:00 19,1 12,6 17,8 17,6 18,2 20 11 39 21 SW 1015,3 60 0 0,0
23.09.2018 04:00:00 18,1 11,6 16,4 17,7 18,2 18 10 40 22 SSW 1015,8 60 0 0,0
23.09.2018 03:00:00 16,9 10,5 14,7 17,7 18,2 14 8 32 18 SW 1016,8 60 0 0,0
23.09.2018 02:00:00 15,3 10,1 13,8 17,7 18,2 10 6 29 16 S 1017,6 60 0 0,0
23.09.2018 01:00:00 15,9 7,9 14,5 17,8 18,2 14 8 29 16 S 1018,4 60 0 0,0
23.09.2018 00:00:00 15,6 8,3 13,2 17,8 18,2 5 3 17 9 S 1019,1 60 0 0,0
22.09.2018 23:00:00 14,2 9,2 13,3 17,9 18,2 3 1 8 5 W 1020,2 53 0 0,0
22.09.2018 22:00:00 14,8 9,6 13,5 17,9 18,2 6 3 21 12 SE 1019,9 60 0 0,0
22.09.2018 21:00:00 15,9 8,6 13,3 17,9 18,2 7 4 11 6 S 1020,3 60 0 0,0
22.09.2018 20:00:00 16,5 7,9 12,9 17,8 18,2 4 2 11 6 SSW 1020,3 50 0 0,0
22.09.2018 19:00:00 17,3 4,9 16,7 17,8 18,2 7 4 21 11 SW 1020,4 60 0 0,0
22.09.2018 18:00:00 17,9 3,7 17,9 17,6 18,2 16 9 26 14 SW 1020,8 60 0 0,0
22.09.2018 17:00:00 18,3 4,1 18,9 17,4 18,2 11 6 29 16 WSW 1021,0 60 0 0,0
22.09.2018 16:00:00 18,5 3,1 20,5 17,3 18,2 12 7 26 14 SW 1021,9 57 26 0,0
22.09.2018 15:00:00 18,9 4,6 20,0 17,1 18,2 13 7 39 21 SW 1022,2 59 46 0,0
22.09.2018 14:00:00 18,2 5,7 20,5 17,0 18,2 16 8 32 17 WSW 1023,2 60 51 0,0
22.09.2018 13:00:00 17,1 5,4 19,5 17,0 18,2 12 7 29 16 SW 1023,5 60 51 0,0
22.09.2018 12:00:00 15,9 7,1 18,6 17,0 18,2 12 6 24 13 SSW 1024,3 51 45 0,0
22.09.2018 11:00:00 14,1 7,2 15,1 17,1 18,2 8 4 17 9 SSW 1024,9 40 36 0,0
22.09.2018 10:00:00 12,4 7,7 11,4 17,2 18,2 11 6 16 9 S 1025,0 30 36 0,0
22.09.2018 09:00:00 10,2 7,8 7,1 17,3 18,3 6 3 10 5 SSE 1025,0 36 18 0,0
22.09.2018 08:00:00 7,4 6,2 4,4 17,4 18,2 3 2 11 6 E 1025,5 35 16 0,0
22.09.2018 07:00:00 9,0 6,8 6,3 17,6 18,2 5 3 15 8 SE 1024,7 60 0 0,0
22.09.2018 06:00:00 10,0 7,2 7,7 17,7 18,2 8 4 14 7 S 1024,1 60 0 0,0
22.09.2018 05:00:00 10,2 7,3 7,9 17,8 18,2 7 4 13 7 S 1024,3 60 0 0,0
22.09.2018 04:00:00 10,9 6,4 7,2 17,9 18,2 7 4 12 7 S 1023,9 60 0 0,0
22.09.2018 03:00:00 9,6 6,3 6,3 18,1 18,2 5 3 8 4 E 1023,8 60 0 0,0
22.09.2018 02:00:00 9,9 6,8 7,6 18,2 18,2 3 2 11 6 ESE 1023,6 60 0 0,0
22.09.2018 01:00:00 12,4 5,8 10,8 18,3 18,2 8 4 21 11 SSW 1023,0 60 0 0,0
22.09.2018 00:00:00 12,9 6,0 10,4 18,4 18,3 9 5 22 12 WSW 1022,6 60 0 0,0
21.09.2018 23:00:00 12,9 6,7 11,2 18,5 18,2 9 5 20 11 WSW 1021,7 60 0 0,0
21.09.2018 22:00:00 13,9 5,3 12,4 18,6 18,2 11 6 27 15 SW 1021,1 60 0 0,0
21.09.2018 21:00:00 14,4 6,0 13,0 18,6 18,2 12 7 22 12 WSW 1020,2 60 0 0,0
21.09.2018 20:00:00 15,1 7,6 13,4 18,7 18,2 10 5 26 14 WSW 1019,0 59 0 0,0
21.09.2018 19:00:00 15,9 9,8 15,2 18,6 18,2 11 6 37 20 WSW 1017,5 60 33 0,0
21.09.2018 18:00:00 16,5 10,8 16,9 18,7 18,2 16 8 40 22 WSW 1016,8 52 52 0,0
21.09.2018 17:00:00 15,1 10,9 14,4 18,7 18,2 20 11 36 19 W 1016,2 59 7 0,0
21.09.2018 16:00:00 13,6 10,9 11,8 18,6 18,2 16 9 43 23 W 1015,5 59 0 1,2
21.09.2018 15:00:00 13,5 11,5 12,8 18,6 18,2 14 7 55 30 W 1014,8 9 0 1,0
21.09.2018 14:00:00 16,4 12,2 15,3 18,6 18,2 29 16 56 30 WNW 1013,2 37 0 0,0
21.09.2018 13:00:00 21,7 13,1 22,6 18,5 18,2 25 13 51 28 SW 1011,2 35 10 0,0
21.09.2018 12:00:00 21,7 12,5 21,6 18,6 18,2 26 14 47 26 SW 1011,2 9 0 0,0
21.09.2018 11:00:00 21,2 12,1 21,1 18,6 18,2 22 12 39 21 SW 1011,4 10 0 0,0
21.09.2018 10:00:00 21,5 13,7 21,3 18,6 18,2 20 11 36 19 SW 1011,2 20 0 0,0
21.09.2018 09:00:00 21,0 13,7 18,9 18,7 18,2 15 8 28 15 SW 1011,1 49 5 0,0
21.09.2018 08:00:00 19,4 13,1 17,8 18,8 18,2 9 5 27 14 SW 1011,2 48 11 0,0
21.09.2018 07:00:00 19,7 12,9 18,0 18,8 18,2 11 6 22 12 SSW 1010,4 49 0 0,0
21.09.2018 06:00:00 19,7 13,2 14,8 19,0 18,2 7 4 18 10 S 1010,6 48 0 0,0
21.09.2018 05:00:00 16,8 12,7 14,6 19,0 18,2 8 5 16 9 ESE 1011,4 41 0 0,0
21.09.2018 04:00:00 17,0 12,9 12,6 19,2 18,2 9 5 15 8 ESE 1012,0 44 0 0,0
21.09.2018 03:00:00 16,2 12,6 12,2 19,2 18,2 6 3 10 5 SE 1012,7 46 0 0,0
21.09.2018 02:00:00 15,8 11,8 12,8 19,3 18,2 4 2 9 5 E 1013,3 38 0 0,0
21.09.2018 01:00:00 19,3 13,2 14,6 19,5 18,2 5 3 16 9 S 1013,4 42 0 0,0
21.09.2018 00:00:00 18,9 13,5 13,4 19,5 18,2 11 6 14 7 SSE 1013,9 45 0 0,0
20.09.2018 23:00:00 17,4 13,7 13,5 19,6 18,2 2 1 7 4 SW 1014,5 33 0 0,0
20.09.2018 22:00:00 18,2 13,7 14,4 19,6 18,2 4 2 6 3 SE 1014,8 44 0 0,0
20.09.2018 21:00:00 19,3 13,9 15,4 19,6 18,2 2 1 7 4 NE 1015,1 44 0 0,0
20.09.2018 20:00:00 22,4 14,3 17,9 19,5 18,2 5 3 14 8 SSE 1015,0 4,5 0 0,0
20.09.2018 19:00:00 26,3 14,1 25,0 19,3 18,2 10 5 17 9 SW 1015,1 55 57 0,0
20.09.2018 18:00:00 27,5 14,2 29,2 19,2 18,2 13 7 27 15 SW 1015,6 52 58 0,0
20.09.2018 17:00:00 27,8 14,4 30,4 19,0 18,2 12 6 31 17 WSW 1016,2 55 60 0,0
20.09.2018 16:00:00 27,4 14,1 30,4 18,8 18,2 17 9 35 19 SW 1017,0 43 58 0,0
20.09.2018 15:00:00 27,4 14,1 29,6 18,6 18,2 19 10 37 20 SSW 1017,5 42 54 0,0
20.09.2018 14:00:00 26,1 13,9 27,0 18,4 18,2 11 6 28 15 WSW 1018,4 20 43 0,0
20.09.2018 13:00:00 25,8 14,6 29,3 18,4 18,2 11 6 26 14 WSW 1019,1 50 58 0,0
20.09.2018 12:00:00 24,8 14,0 28,0 18,3 18,2 15 8 31 17 WSW 1019,7 40 60 0,0
20.09.2018 11:00:00 23,2 14,7 26,4 18,4 18,2 9 5 16 9 S 1020,2 19 60 0,0
20.09.2018 10:00:00 19,9 14,9 20,8 18,5 18,2 6 3 11 6 S 1020,6 19 60 0,0
20.09.2018 09:00:00 16,7 14,2 11,6 18,6 18,2 2 1 5 3 E 1020,8 16 58 0,0
20.09.2018 08:00:00 12,4 11,9 8,6 18,7 18,2 4 2 5 3 E 1021,2 8 13 0,0
20.09.2018 07:00:00 12,0 11,4 8,9 18,9 18,2 3 2 5 3 ESE 1021,1 3,8 0 0,0
20.09.2018 06:00:00 13,1 12,6 9,3 19,0 18,2 1 1 5 3 SE 1021,0 3,4 0 0,0
20.09.2018 05:00:00 13,5 12,7 9,8 19,1 18,2 1 1 6 4 ENE 1020,9 9 0 0,0
20.09.2018 04:00:00 13,9 12,6 10,8 19,2 18,2 6 4 7 4 ESE 1020,6 16 0 0,0
20.09.2018 03:00:00 15,3 13,3 11,4 19,3 18,2 2 1 7 4 WNW 1020,6 31 0 0,0
20.09.2018 02:00:00 15,5 13,2 12,7 19,4 18,2 3 2 7 4 ESE 1020,9 34 0 0,0
20.09.2018 01:00:00 17,1 14,0 14,2 19,5 18,2 6 3 8 5 SSE 1020,6 20 0 0,0
20.09.2018 00:00:00 19,2 14,0 16,3 19,6 18,2 6 3 15 8 SE 1020,5 42 0 0,0
19.09.2018 23:00:00 21,1 15,0 15,2 19,6 18,2 8 5 14 8 WNW 1020,0 50 0 0,0

tt = temperature
td = dewpoint
tt 5cm = temperature 5cm
tt -20cm = temperature -20cm
tt -100cm = temperature -100cm
ff = wind speed
fx = gusts
dd = wind direction
ppp = reduced air pressure
vv = visibility
sd = sunshine duration
rr = precipitation

Next stations